This demonstration page uses our WeatherBlox Daily Observations layout. Learn more.

Left ArrowRight Arrow

39.92423, -83.80882

Hourly Observations for August 19, 2022

Temp ( °F °C ) Dew Point ( °F °C ) Humidity (%) Winds ( mph kmh ) Pressure ( in mb ) Visibility ( mi km ) Precip ( " mm )
12:56 am 00:56 Clear 59 15 N/A N/A ESE 3 6 30.02 1017 10 16 0.00 0.00
1:56 am 01:56 Clear N/A N/A N/A ESE 3 6 30.08 1019 8 13 0.00 0.00
2:56 am 02:56 Mostly Clear N/A N/A N/A Calm 30.10 1019 8 13 0.00 0.00
3:56 am 03:56 Hazy N/A N/A N/A Calm 30.10 1019 6 10 0.00 0.00
4:56 am 04:56 Clear 56 13.3 N/A N/A Calm 30.04 1017 8 13 0.00 0.00
5:56 am 05:56 Clear 56 13.3 N/A N/A Calm 30.04 1017 8 13 0.00 0.00
6:56 am 06:56 Sunny 56 13.3 N/A N/A E 3 6 30.04 1017 7 11 0.00 0.00
7:56 am 07:56 Sunny 59 15 N/A N/A E 3 6 30.06 1018 7 11 0.00 0.00
8:56 am 08:56 Sunny 68 20 67 19.4 96 96 Calm 30.07 1018 10 16 0.00 0.00
9:56 am 09:56 Sunny 74 23.3 67 19.4 79 79 SSE 3 6 30.07 1018 10 16 0.00 0.00
10:56 am 10:56 Sunny 77 25 64 17.8 64 64 SSW 5 7 30.07 1018 10 16 0.00 0.00
11:56 am 11:56 Sunny 79 26.1 63 17.2 58 58 Calm 30.03 1017 10 16 0.00 0.00
12:56 pm 12:56 Sunny 81 27.2 63 17.2 54 54 VRB 5 7 30.05 1018 10 16 0.00 0.00
1:56 pm 13:56 Sunny 81 27.2 63 17.2 54 54 ESE 7 11 30.00 1016 10 16 0.00 0.00
2:56 pm 14:56 Mostly Sunny 83 28.3 63 17.2 51 51 VRB 7 11 29.99 1016 10 16 0.00 0.00
3:56 pm 15:56 Sunny 82 27.8 61 16.1 49 49 ESE 8 13 29.97 1015 9 14 0.00 0.00
4:56 pm 16:56 Sunny 83 28.3 62 16.7 49 49 SSE 6 9 30.01 1016 10 16 0.00 0.00
5:56 pm 17:56 Mostly Sunny 82 27.8 61 16.1 49 49 S 6 9 30.01 1016 10 16 0.00 0.00
6:56 pm 18:56 Mostly Cloudy 80 26.7 62 16.7 54 54 SSE 6 9 30.01 1016 10 16 0.00 0.00
7:56 pm 19:56 Sunny 76 24.4 64 17.8 67 67 Calm 30.01 1016 10 16 0.00 0.00
8:56 pm 20:56 Clear 71 21.7 65 18.3 81 81 SSE 5 7 30.01 1016 10 16 0.00 0.00
9:56 pm 21:56 Clear 67 19.4 67 19.4 100 100 SE 5 7 30.03 1017 10 16 0.00 0.00
10:56 pm 22:56 Clear 69 20.6 66 18.9 90 90 SSE 7 11 30.04 1017 10 16 0.00 0.00
11:56 pm 23:56 Clear 65 18.3 65 18.3 100 100 SE 3 6 30.04 1017 10 16 0.00 0.00

Powered by AerisWeather